Weather History for St. Joseph, MO

Change the Weather History Date:

Wednesday, November 28, 2012

  Actual Average Record
Temperature  
Mean Temperature 33 °F 36 °F  
Max Temperature 52 °F 46 °F 72 °F (1998)
Min Temperature 14 °F 26 °F 1 °F (1976)
Degree Days  
Heating Degree Days 32 29  
Month to date heating degree days 564 633  
Since 1 July heating degree days 1065 1052  
Cooling Degree Days 0 0  
Month to date cooling degree days 5 0  
Year to date cooling degree days 1565 1220  
Moisture  
Dew Point 22 °F    
Average Humidity 65    
Maximum Humidity 92    
Minimum Humidity 38    
Precipitation  
Precipitation 0.00 in 0.04 in 0.59 in (1919)
Month to date precipitation 1.79 1.47  
Year to date precipitation 22.31 34.00  
Sea Level Pressure  
Sea Level Pressure 30.33 in    
Wind  
Wind Speed 4 mph (South)    
Max Wind Speed 10 mph    
Max Gust Speed 13 mph    
Visibility 9 miles    
Events      
T = Trace of Precipitation, MM = Missing Value Source: NWS Daily Summary

Daily Weather History Graph

Daily Weather History Graph

Search for Another Location

Airport:

Trip Planner

Search our weather history database for the weather conditions in past years. The results will help you decide how hot, cold, wet, or windy it might be!

Date:

Astronomy

Nov. 28, 2012 Rise Set
Actual Time 7:19 AM CST 4:56 PM CST
Civil Twilight 6:49 AM CST 5:26 PM CST
Nautical Twilight 6:15 AM CST 5:59 PM CST
Astronomical Twilight 5:43 AM CST 6:31 PM CST
Moon 5:11 PM CST (11/28) 7:17 AM CST (11/28)
Length of Visible Light 10h 36m
Length of Day
9h 37m
Full, 100% of the Moon is Illuminated
Nov 28
Full
Dec 6
Last Quarter
Dec 13
New
Dec 19
First Quarter
Dec 28
Full

Hourly Weather History & Observations

Time (CST) Temp. Windchill Dew Point Humidity Pressure Visibility Wind Dir Wind Speed Gust Speed Precip Events Conditions
12:53 AM 21.0 °F - 14.0 °F 74% 30.35 in 10.0 mi Calm Calm - N/A   Clear
1:53 AM 21.0 °F 14.6 °F 15.1 °F 78% 30.37 in 10.0 mi South 4.6 mph - N/A   Clear
2:53 AM 24.1 °F 19.7 °F 18.0 °F 77% 30.38 in 10.0 mi SW 3.5 mph - N/A   Clear
3:53 AM 21.9 °F - 19.0 °F 89% 30.38 in 10.0 mi Calm Calm - N/A   Clear
4:53 AM 21.9 °F - 17.1 °F 82% 30.39 in 9.0 mi Calm Calm - N/A   Clear
5:53 AM 19.9 °F - 16.0 °F 85% 30.40 in 9.0 mi Calm Calm - N/A   Clear
6:53 AM 18.0 °F 12.7 °F 14.0 °F 84% 30.41 in 9.0 mi North 3.5 mph - N/A   Clear
7:36 AM 17.6 °F 8.2 °F 12.2 °F 79% 30.39 in 1.8 mi NNE 6.9 mph - N/A   Scattered Clouds
7:45 AM 19.4 °F 12.8 °F 17.6 °F 93% 30.39 in 10.0 mi NNE 4.6 mph - N/A   Clear
7:53 AM 19.9 °F - 18.0 °F 92% 30.43 in 10.0 mi Calm Calm - N/A   Clear
8:00 AM 19.4 °F - 17.6 °F 93% 30.39 in 6.0 mi Calm Calm - N/A   Partly Cloudy
8:53 AM 27.0 °F - 21.9 °F 81% 30.44 in 8.0 mi Calm Calm - N/A   Clear
9:53 AM 34.0 °F - 25.0 °F 70% 30.44 in 7.0 mi Calm Calm - N/A   Clear
10:53 AM 39.0 °F 36.8 °F 26.1 °F 60% 30.43 in 9.0 mi South 3.5 mph - N/A   Clear
11:53 AM 45.0 °F 42.6 °F 26.1 °F 48% 30.39 in 10.0 mi SE 4.6 mph - N/A   Clear
12:53 PM 48.9 °F - 26.1 °F 41% 30.35 in 10.0 mi South 9.2 mph - N/A   Clear
1:53 PM 51.1 °F - 28.0 °F 41% 30.32 in 10.0 mi South 8.1 mph - N/A   Clear
2:53 PM 52.0 °F - 27.0 °F 38% 30.29 in 10.0 mi SSW 8.1 mph - N/A   Clear
3:53 PM 51.1 °F - 28.0 °F 41% 30.27 in 10.0 mi South 9.2 mph - N/A   Clear
4:53 PM 44.1 °F 40.1 °F 26.1 °F 49% 30.26 in 10.0 mi South 6.9 mph - N/A   Clear
5:53 PM 42.1 °F 36.6 °F 26.1 °F 53% 30.24 in 10.0 mi SSE 9.2 mph - N/A   Clear
6:53 PM 41.0 °F 35.2 °F 27.0 °F 57% 30.24 in 10.0 mi SSE 9.2 mph - N/A   Clear
7:53 PM 37.0 °F 31.6 °F 25.0 °F 62% 30.24 in 10.0 mi South 6.9 mph - N/A   Clear
8:53 PM 36.0 °F 30.3 °F 26.1 °F 67% 30.23 in 10.0 mi South 6.9 mph - N/A   Clear
9:53 PM 33.1 °F 30.0 °F 25.0 °F 72% 30.22 in 10.0 mi South 3.5 mph - N/A   Clear
10:53 PM 39.0 °F 35.7 °F 28.0 °F 65% 30.19 in 10.0 mi South 4.6 mph - N/A   Clear
11:53 PM 28.0 °F - 21.0 °F 75% 30.19 in 10.0 mi Calm Calm - N/A   Clear